Munster, IL

1:26 AM CDT on September 01, 2016 (GMT -0500)
Lansing Municipal

Weather History for KIGQ - August, 2013

Change the Weather History Date:

Tuesday, August 6, 2013

  Actual Average (KMDW) Record (KMDW)
Temperature  
Mean Temperature 72 °F 75 °F  
Max Temperature 81 °F 83 °F 101 °F (1947)
Min Temperature 64 °F 67 °F 50 °F (1948)
Degree Days  
Heating Degree Days 0 0  
Month to date heating degree days 0  
Since 1 June heating degree days 32  
Since 1 July heating degree days 1  
Cooling Degree Days 8 10  
Month to date cooling degree days 60  
Year to date cooling degree days 682  
Since 1 June cooling degree days 608  
Growing Degree Days 22 (Base 50)    
Moisture  
Dew Point 65 °F    
Average Humidity 80    
Maximum Humidity 93    
Minimum Humidity 61    
Precipitation  
Precipitation 0.00 in 0.13 in 2.17 in (1951)
Month to date precipitation 0.82  
Year to date precipitation 23.38  
Sea Level Pressure  
Sea Level Pressure 29.89 in    
Wind  
Wind Speed 7 mph (SSW)    
Max Wind Speed 12 mph    
Max Gust Speed -    
Visibility 10 miles    
Events      
T = Trace of Precipitation, MM = Missing Value Source: NWS Daily Summary

Daily Weather History Graph

Daily Weather History Graph

Search for Another Location

Airport or City:

Trip Planner

Search our weather history database for the weather conditions in past years. The results will help you decide how hot, cold, wet, or windy it might be!

Date:

Astronomy

Aug. 06, 2013 Rise Set
Actual Time 5:49 AM CDT 8:01 PM CDT
Civil Twilight 5:19 AM CDT 8:31 PM CDT
Nautical Twilight 4:41 AM CDT 9:09 PM CDT
Astronomical Twilight 3:59 AM CDT 9:50 PM CDT
Moon 5:41 AM CDT (8/6) 7:34 PM CDT (8/6)
Length of Visible Light 15h 12m
Length of Day
14h 11m
Waning Crescent, 0% of the Moon is Illuminated
Aug 6
Waning Crescent
Aug 6
New
Aug 14
First Quarter
Aug 20
Full
Aug 28
Last Quarter

Hourly Weather History & Observations

Time (CDT) Temp. Heat Index Dew Point Humidity Pressure Visibility Wind Dir Wind Speed Gust Speed Precip Events Conditions
12:15 AM 66.2 °F - 60.8 °F 83% 29.92 in 10.0 mi South 4.6 mph - N/A   Overcast
12:35 AM 66.2 °F - 60.8 °F 83% 29.91 in 10.0 mi South 8.1 mph - N/A   Overcast
12:55 AM 65.5 °F - 62.1 °F 89% 29.91 in 10.0 mi SSW 8.1 mph - N/A   Overcast
1:15 AM 65.5 °F - 62.1 °F 89% 29.90 in 10.0 mi South 6.9 mph - N/A   Overcast
1:35 AM 65.3 °F - 62.1 °F 89% 29.90 in 10.0 mi South 6.9 mph - N/A   Overcast
1:55 AM 65.8 °F - 62.6 °F 89% 29.90 in 10.0 mi South 6.9 mph - N/A   Overcast
2:15 AM 66.2 °F - 62.6 °F 88% 29.91 in 10.0 mi South 4.6 mph - N/A   Overcast
2:35 AM 66.2 °F - 62.6 °F 88% 29.90 in 10.0 mi South 5.8 mph - N/A   Overcast
2:55 AM 66.0 °F - 62.4 °F 88% 29.90 in 10.0 mi SSW 4.6 mph - N/A   Overcast
3:15 AM 65.3 °F - 62.2 °F 90% 29.88 in 10.0 mi SSW 3.5 mph - N/A   Mostly Cloudy
3:35 AM 64.4 °F - 61.7 °F 91% 29.88 in 10.0 mi South 4.6 mph - N/A   Scattered Clouds
3:55 AM 64.2 °F - 61.9 °F 92% 29.87 in 10.0 mi Calm Calm - N/A   Clear
4:15 AM 64.4 °F - 62.1 °F 92% 29.87 in 10.0 mi South 3.5 mph - N/A   Clear
4:35 AM 64.6 °F - 62.1 °F 92% 29.87 in 10.0 mi South 3.5 mph - N/A   Mostly Cloudy
4:55 AM 64.6 °F - 62.4 °F 93% 29.88 in 10.0 mi Calm Calm - N/A   Overcast
5:15 AM 64.8 °F - 62.6 °F 93% 29.88 in 10.0 mi Calm Calm - N/A   Overcast
5:35 AM 65.3 °F - 63.0 °F 92% 29.88 in 10.0 mi South 4.6 mph - N/A   Overcast
5:55 AM 64.8 °F - 62.4 °F 92% 29.88 in 10.0 mi South 4.6 mph - N/A   Scattered Clouds
6:15 AM 65.1 °F - 62.8 °F 92% 29.90 in 10.0 mi SSW 3.5 mph - N/A   Mostly Cloudy
6:35 AM 65.7 °F - 63.3 °F 92% 29.90 in 10.0 mi South 6.9 mph - N/A   Overcast
6:55 AM 66.2 °F - 63.5 °F 91% 29.91 in 10.0 mi SSW 5.8 mph - N/A   Overcast
7:15 AM 66.2 °F - 63.5 °F 91% 29.91 in 10.0 mi South 6.9 mph - N/A   Overcast
7:35 AM 66.2 °F - 63.5 °F 91% 29.90 in 10.0 mi SSW 8.1 mph - N/A   Mostly Cloudy
7:55 AM 67.8 °F - 64.2 °F 88% 29.92 in 10.0 mi SW 6.9 mph - N/A   Overcast
8:15 AM 68.5 °F - 64.4 °F 87% 29.92 in 10.0 mi SW 9.2 mph - N/A   Overcast
8:35 AM 68.9 °F - 64.6 °F 86% 29.91 in 10.0 mi SSW 10.4 mph - N/A   Overcast
8:55 AM 68.5 °F - 64.4 °F 87% 29.92 in 10.0 mi West 11.5 mph - N/A   Overcast
9:15 AM 68.9 °F - 64.6 °F 86% 29.91 in 10.0 mi SW 11.5 mph - N/A   Overcast
9:35 AM 69.3 °F - 65.1 °F 87% 29.91 in 10.0 mi SW 10.4 mph - N/A   Overcast
9:55 AM 70.2 °F - 65.3 °F 85% 29.90 in 10.0 mi SW 11.5 mph - N/A   Overcast
10:15 AM 70.5 °F - 65.3 °F 83% 29.91 in 10.0 mi WSW 9.2 mph - N/A   Overcast
10:35 AM 71.1 °F - 65.7 °F 83% 29.92 in 10.0 mi West 6.9 mph - N/A   Overcast
10:55 AM 72.0 °F - 65.7 °F 80% 29.93 in 10.0 mi SW 5.8 mph - N/A   Overcast
11:15 AM 72.9 °F - 66.2 °F 80% 29.93 in 10.0 mi WSW 9.2 mph - N/A   Overcast
11:35 AM 74.3 °F - 66.6 °F 77% 29.92 in 10.0 mi WSW 5.8 mph - N/A   Overcast
11:55 AM 75.0 °F - 66.2 °F 74% 29.92 in 10.0 mi SSW 9.2 mph - N/A   Overcast
12:15 PM 76.1 °F - 66.4 °F 72% 29.91 in 10.0 mi SW 5.8 mph - N/A   Mostly Cloudy
12:35 PM 77.4 °F - 66.9 °F 70% 29.91 in 10.0 mi WSW 8.1 mph - N/A   Mostly Cloudy
12:55 PM 77.2 °F - 66.9 °F 71% 29.91 in 10.0 mi SSW 8.1 mph - N/A   Overcast
1:15 PM 77.0 °F - 66.6 °F 70% 29.90 in 10.0 mi South 9.2 mph - N/A   Overcast
1:35 PM 77.4 °F - 66.9 °F 70% 29.90 in 10.0 mi South 8.1 mph - N/A   Overcast
1:55 PM 77.5 °F - 66.7 °F 69% 29.90 in 10.0 mi SW 9.2 mph - N/A   Overcast
2:15 PM 78.1 °F - 67.1 °F 69% 29.89 in 10.0 mi SW 10.4 mph - N/A   Mostly Cloudy
2:35 PM 79.5 °F - 67.1 °F 66% 29.88 in 10.0 mi SSW 6.9 mph - N/A   Scattered Clouds
2:55 PM 79.2 °F - 66.9 °F 66% 29.88 in 10.0 mi South 9.2 mph - N/A   Clear
3:15 PM 80.2 °F 82.6 °F 67.1 °F 64% 29.87 in 10.0 mi South 10.4 mph - N/A   Scattered Clouds
3:35 PM 80.1 °F 82.4 °F 67.3 °F 65% 29.86 in 10.0 mi South 8.1 mph - N/A   Mostly Cloudy
3:55 PM 81.5 °F 83.9 °F 66.9 °F 61% 29.86 in 10.0 mi South 10.4 mph - N/A   Scattered Clouds
4:15 PM 81.1 °F 83.5 °F 66.9 °F 62% 29.86 in 10.0 mi SW 8.1 mph - N/A   Scattered Clouds
4:35 PM 80.8 °F 83.1 °F 66.7 °F 62% 29.87 in 10.0 mi South 9.2 mph - N/A   Mostly Cloudy
4:55 PM 81.1 °F 83.5 °F 66.9 °F 62% 29.87 in 10.0 mi South 11.5 mph - N/A   Mostly Cloudy
5:15 PM 79.7 °F - 66.9 °F 65% 29.87 in 10.0 mi South 11.5 mph - N/A   Mostly Cloudy
5:35 PM 79.9 °F - 66.9 °F 64% 29.87 in 10.0 mi South 10.4 mph - N/A   Scattered Clouds
5:55 PM 79.0 °F - 66.7 °F 66% 29.87 in 10.0 mi South 10.4 mph - N/A   Clear
6:15 PM 78.3 °F - 66.6 °F 67% 29.86 in 10.0 mi South 10.4 mph - N/A   Clear
6:35 PM 77.9 °F - 66.7 °F 68% 29.87 in 10.0 mi South 10.4 mph - N/A   Clear
6:55 PM 77.0 °F - 66.7 °F 70% 29.87 in 10.0 mi South 11.5 mph - N/A   Clear
7:15 PM 76.3 °F - 67.1 °F 73% 29.87 in 10.0 mi South 9.2 mph - N/A   Clear
7:35 PM 75.7 °F - 66.7 °F 74% 29.87 in 10.0 mi South 10.4 mph - N/A   Clear
7:55 PM 75.4 °F - 66.6 °F 74% 29.87 in 10.0 mi South 8.1 mph - N/A   Clear
8:15 PM 75.2 °F - 66.6 °F 74% 29.88 in 10.0 mi South 5.8 mph - N/A   Clear
8:35 PM 74.7 °F - 66.6 °F 76% 29.88 in 10.0 mi South 5.8 mph - N/A   Clear
8:55 PM 73.9 °F - 66.9 °F 79% 29.88 in 10.0 mi South 5.8 mph - N/A   Mostly Cloudy
9:15 PM 73.6 °F - 66.7 °F 79% 29.88 in 10.0 mi South 5.8 mph - N/A   Scattered Clouds
9:35 PM 72.9 °F - 66.7 °F 81% 29.88 in 10.0 mi South 8.1 mph - N/A   Scattered Clouds
9:55 PM 72.7 °F - 66.9 °F 82% 29.88 in 10.0 mi South 6.9 mph - N/A   Scattered Clouds
10:15 PM 71.6 °F - 66.9 °F 85% 29.89 in 10.0 mi South 6.9 mph - N/A   Clear
10:35 PM 71.6 °F - 67.1 °F 86% 29.88 in 10.0 mi South 8.1 mph - N/A   Clear
10:55 PM 71.2 °F - 67.1 °F 87% 29.88 in 10.0 mi South 5.8 mph - N/A   Clear
11:15 PM 70.7 °F - 67.3 °F 89% 29.88 in 10.0 mi South 5.8 mph - N/A   Clear
11:35 PM 71.1 °F - 67.5 °F 88% 29.87 in 10.0 mi South 5.8 mph - N/A   Clear
11:55 PM 72.1 °F - 68.4 °F 88% 29.87 in 10.0 mi SSW 8.1 mph - N/A   Clear